This demonstration page uses our WeatherBlox Daily Observations layout. Learn more.

Left ArrowRight Arrow

Hourly Observations for September 9, 2018

Temp ( °F °C ) Dew Point ( °F °C ) Humidity (%) Winds ( mph kmh ) Pressure ( in mb ) Visibility ( mi km ) Precip ( " mm )
12:53 am 00:53 Clear 68 20 66 18.9 93 93 ESE 6 9 29.92 1013 10 16 0.00 0.00
1:53 am 01:53 Mostly Clear 67 19.4 65 18.3 93 93 E 5 7 29.91 1013 10 16 0.00 0.00
2:53 am 02:53 Clear 66 18.9 65 18.3 96 96 ESE 3 6 29.91 1013 10 16 0.00 0.00
3:53 am 03:53 Clear 66 18.9 64 17.8 93 93 Calm 29.89 1012 10 16 0.00 0.00
4:53 am 04:53 Mostly Cloudy 65 18.3 64 17.8 97 97 Calm 29.90 1013 10 16 0.00 0.00
5:53 am 05:53 Mostly Cloudy 64 17.8 63 17.2 96 96 NNE 5 7 29.90 1012 10 16 0.00 0.00
6:53 am 06:53 Clear 64 17.8 63 17.2 96 96 ENE 5 7 29.91 1013 10 16 0.00 0.00
7:53 am 07:53 Mostly Cloudy 64 17.8 63 17.2 96 96 Calm 29.94 1014 9 14 0.00 0.00
8:20 am 08:20 Cloudy 66 18.9 65 18.3 96 96 Calm 29.97 1015 10 16 0.00 0.00
8:53 am 08:53 Cloudy 68 20 66 18.9 93 93 Calm 29.96 1015 10 16 0.00 0.00
9:53 am 09:53 undefined 70 21.1 65 18.3 84 84 E 5 7 29.96 1015 N/A 0.00 0.00
10:30 am 10:30 Mostly Cloudy 72 22.2 64 17.8 76 76 SE 7 11 29.94 1014 10 16 0.00 0.00
10:53 am 10:53 Cloudy 72 22.2 65 18.3 79 79 SE 7 11 29.96 1015 10 16 0.00 0.00
11:34 am 11:34 Partly Cloudy 74 23.3 64 17.8 71 71 SSE 5 7 29.91 1013 10 16 0.00 0.00
11:53 am 11:53 Mostly Sunny 75 23.9 65 18.3 71 71 N 5 7 29.96 1015 10 16 0.00 0.00
12:53 pm 12:53 Partly Cloudy 78 25.6 64 17.8 62 62 VRB 6 9 29.94 1014 10 16 0.00 0.00
1:53 pm 13:53 Sunny 80 26.7 63 17.2 56 56 VRB 6 9 29.90 1013 10 16 0.00 0.00
2:53 pm 14:53 Mostly Cloudy 81 27.2 61 16.1 51 51 VRB 5 7 29.88 1012 10 16 0.00 0.00
3:53 pm 15:53 Mostly Cloudy 81 27.2 59 15 47 47 Calm 29.85 1011 10 16 0.00 0.00
4:53 pm 16:53 Partly Cloudy 82 27.8 61 16.1 49 49 SW 7 11 29.82 1010 10 16 0.00 0.00
5:53 pm 17:53 Mostly Sunny 83 28.3 61 16.1 48 48 VRB 3 6 29.81 1010 10 16 0.00 0.00
6:53 pm 18:53 Sunny 82 27.8 61 16.1 49 49 SSE 9 15 29.81 1010 10 16 0.00 0.00
7:53 pm 19:53 Sunny 79 26.1 64 17.8 60 60 SSE 3 6 29.83 1010 10 16 0.00 0.00
8:53 pm 20:53 Mostly Clear 75 23.9 65 18.3 71 71 SSE 7 11 29.84 1011 10 16 0.00 0.00
9:53 pm 21:53 Mostly Clear 74 23.3 63 17.2 69 69 SE 9 15 29.86 1011 10 16 0.00 0.00
10:53 pm 22:53 Clear 72 22.2 63 17.2 73 73 SE 7 11 29.88 1012 10 16 0.00 0.00
11:53 pm 23:53 Clear 70 21.1 63 17.2 79 79 ESE 10 17 29.90 1012 10 16 0.00 0.00

Powered by AerisWeather